Hourly Weather Barra da Estiva

Today, 19 April, Monday

Time Temperature Precipitation Wind Pressure Humidity
00:00 +19°C° 0 mm 1 mps 674 mmHg 87%
01:00 +19°C° 0.1 mm 1 mps 674 mmHg 88%
02:00 +19°C° 0.1 mm 1 mps 673 mmHg 90%
03:00 +19°C° 0.1 mm 1 mps 673 mmHg 91%
04:00 +19°C° 0.2 mm 1 mps 673 mmHg 93%
05:00 +19°C° 0.2 mm 1 mps 673 mmHg 94%
06:00 +18°C° 0.2 mm 1 mps 674 mmHg 96%
07:00 +21°C° 0.1 mm 1 mps 674 mmHg 86%
08:00 +23°C° 0.1 mm 1 mps 675 mmHg 77%
09:00 +25°C° 0.1 mm 2 mps 676 mmHg 67%
10:00 +26°C° 0.4 mm 2 mps 676 mmHg 61%
11:00 +27°C° 0.4 mm 2 mps 675 mmHg 55%
12:00 +29°C° 0.4 mm 2 mps 675 mmHg 49%
13:00 +28°C° 0.2 mm 1 mps 675 mmHg 51%
14:00 +28°C° 0.2 mm 1 mps 674 mmHg 52%
15:00 +27°C° 0.2 mm 1 mps 673 mmHg 54%
16:00 +25°C° 1.1 mm 1 mps 673 mmHg 64%
17:00 +24°C° 1.1 mm 1 mps 673 mmHg 74%
18:00 +22°C° 1.1 mm 1 mps 673 mmHg 83%
19:00 +22°C° 0.5 mm 1 mps 673 mmHg 84%
20:00 +21°C° 0.5 mm 1 mps 674 mmHg 85%
21:00 +21°C° 0.5 mm 1 mps 674 mmHg 85%
22:00 +21°C° 0.3 mm 1 mps 674 mmHg 87%
23:00 +20°C° 0.3 mm 2 mps 674 mmHg 88%

Tomorrow, 20 April, Tuesday

Time Temperature Precipitation Wind Pressure Humidity
00:00 +19°C° 0.3 mm 2 mps 674 mmHg 90%
01:00 +19°C° 0.2 mm 2 mps 674 mmHg 90%
02:00 +20°C° 0.2 mm 1 mps 673 mmHg 91%
03:00 +20°C° 0.2 mm 1 mps 673 mmHg 92%
04:00 +20°C° 0.2 mm 1 mps 673 mmHg 92%
05:00 +20°C° 0.2 mm 1 mps 673 mmHg 92%
06:00 +20°C° 0.2 mm 1 mps 673 mmHg 92%
07:00 +21°C° 0.4 mm 1 mps 674 mmHg 86%
08:00 +22°C° 0.4 mm 1 mps 675 mmHg 80%
09:00 +24°C° 0.4 mm 1 mps 675 mmHg 73%
10:00 +24°C° 1 mm 1 mps 675 mmHg 74%
11:00 +24°C° 1 mm 1 mps 675 mmHg 75%
12:00 +24°C° 1 mm 1 mps 674 mmHg 75%
13:00 +23°C° 1 mm 1 mps 674 mmHg 79%
14:00 +22°C° 1 mm 1 mps 673 mmHg 83%
15:00 +22°C° 1 mm 1 mps 673 mmHg 87%
16:00 +21°C° 0.9 mm 1 mps 673 mmHg 89%
17:00 +21°C° 0.9 mm 1 mps 673 mmHg 91%
18:00 +20°C° 0.9 mm 1 mps 673 mmHg 94%
19:00 +20°C° 0.1 mm 1 mps 674 mmHg 94%
20:00 +18°C° 0.1 mm 0 mps 674 mmHg 93%
21:00 +18°C° 0.1 mm 0 mps 674 mmHg 93%
22:00 +18°C° 0 mm 0 mps 674 mmHg 93%
23:00 +19°C° 0 mm 1 mps 674 mmHg 93%

Day after tomorrow, 21 April, Wednesday

Time Temperature Precipitation Wind Pressure Humidity
00:00 +19°C° 0 mm 1 mps 674 mmHg 94%
01:00 +19°C° 0.1 mm 1 mps 673 mmHg 93%
02:00 +18°C° 0.1 mm 0 mps 673 mmHg 93%
03:00 +18°C° 0.1 mm 0 mps 673 mmHg 92%
04:00 +19°C° 0.2 mm 1 mps 673 mmHg 92%
05:00 +19°C° 0.2 mm 1 mps 673 mmHg 93%
06:00 +19°C° 0.2 mm 1 mps 674 mmHg 93%
07:00 +20°C° 0.3 mm 1 mps 674 mmHg 92%
08:00 +20°C° 0.3 mm 1 mps 675 mmHg 92%
09:00 +18°C° 0.3 mm 0 mps 675 mmHg 91%
10:00 +18°C° 0.2 mm 0 mps 675 mmHg 90%
11:00 +19°C° 0.2 mm 0 mps 675 mmHg 89%
12:00 +19°C° 0.2 mm 0 mps 674 mmHg 87%
13:00 +19°C° 0 mm 0 mps 674 mmHg 87%
14:00 +21°C° 0 mm 1 mps 674 mmHg 86%
15:00 +21°C° 0 mm 1 mps 673 mmHg 86%
16:00 +19°C° 0.1 mm 0 mps 673 mmHg 88%
17:00 +19°C° 0.1 mm 0 mps 674 mmHg 89%
18:00 +18°C° 0.1 mm 0 mps 674 mmHg 91%
19:00 +18°C° 0 mm 0 mps 674 mmHg 91%
20:00 +18°C° 0 mm 0 mps 675 mmHg 91%
21:00 +18°C° 0 mm 0 mps 675 mmHg 92%
22:00 +18°C° 0 mm 0 mps 675 mmHg 92%
23:00 +20°C° 0 mm 1 mps 675 mmHg 92%

22 April, Thursday

Time Temperature Precipitation Wind Pressure Humidity
00:00 +19°C° 0 mm 1 mps 674 mmHg 92%
01:00 +19°C° 0 mm 1 mps 674 mmHg 90%
02:00 +20°C° 0 mm 1 mps 674 mmHg 88%
03:00 +18°C° 0 mm 0 mps 673 mmHg 86%
04:00 +19°C° 0 mm 1 mps 674 mmHg 87%
05:00 +19°C° 0 mm 1 mps 674 mmHg 87%
06:00 +19°C° 0 mm 1 mps 674 mmHg 87%
07:00 +21°C° 0 mm 1 mps 675 mmHg 79%
08:00 +21°C° 0 mm 0 mps 675 mmHg 71%
09:00 +22°C° 0 mm 0 mps 676 mmHg 63%
10:00 +26°C° 0 mm 1 mps 676 mmHg 57%
11:00 +27°C° 0 mm 1 mps 676 mmHg 52%
12:00 +29°C° 0 mm 1 mps 676 mmHg 46%
13:00 +28°C° 0 mm 1 mps 675 mmHg 47%
14:00 +28°C° 0 mm 1 mps 674 mmHg 47%
15:00 +28°C° 0 mm 1 mps 674 mmHg 48%
16:00 +26°C° 0.3 mm 1 mps 674 mmHg 55%
17:00 +25°C° 0.3 mm 1 mps 674 mmHg 63%
18:00 +23°C° 0.3 mm 1 mps 674 mmHg 71%
19:00 +23°C° 0.5 mm 1 mps 674 mmHg 75%
20:00 +21°C° 0.5 mm 2 mps 675 mmHg 80%
21:00 +20°C° 0.5 mm 2 mps 675 mmHg 84%
22:00 +20°C° 0 mm 2 mps 675 mmHg 84%
23:00 +21°C° 0 mm 1 mps 675 mmHg 84%

23 April, Friday

Time Temperature Precipitation Wind Pressure Humidity
00:00 +19°C° 0 mm 0 mps 674 mmHg 84%
01:00 +20°C° 0 mm 1 mps 674 mmHg 86%
02:00 +20°C° 0 mm 1 mps 674 mmHg 87%
03:00 +20°C° 0 mm 1 mps 674 mmHg 89%
04:00 +20°C° 0.3 mm 1 mps 674 mmHg 90%
05:00 +19°C° 0.3 mm 1 mps 674 mmHg 91%
06:00 +19°C° 0.3 mm 1 mps 675 mmHg 92%
07:00 +21°C° 0.6 mm 1 mps 675 mmHg 85%
08:00 +23°C° 0.6 mm 1 mps 676 mmHg 78%
09:00 +24°C° 0.6 mm 1 mps 677 mmHg 71%
10:00 +25°C° 0.8 mm 1 mps 676 mmHg 67%
11:00 +26°C° 0.8 mm 2 mps 676 mmHg 62%
12:00 +27°C° 0.8 mm 2 mps 676 mmHg 58%
13:00 +27°C° 0.4 mm 2 mps 675 mmHg 58%
14:00 +27°C° 0.4 mm 2 mps 675 mmHg 59%
15:00 +27°C° 0.4 mm 2 mps 674 mmHg 59%
16:00 +25°C° 0.3 mm 2 mps 674 mmHg 65%
17:00 +24°C° 0.3 mm 1 mps 674 mmHg 72%
18:00 +22°C° 0.3 mm 1 mps 674 mmHg 78%
19:00 +22°C° 0.2 mm 1 mps 674 mmHg 80%
20:00 +22°C° 0.2 mm 1 mps 675 mmHg 82%
21:00 +21°C° 0.2 mm 1 mps 675 mmHg 85%
22:00 +21°C° 0 mm 1 mps 675 mmHg 85%
23:00 +21°C° 0 mm 1 mps 675 mmHg 86%

24 April, Saturday

Time Temperature Precipitation Wind Pressure Humidity
00:00 +21°C° 0 mm 1 mps 674 mmHg 86%
01:00 +20°C° 0 mm 1 mps 674 mmHg 88%
02:00 +20°C° 0 mm 1 mps 674 mmHg 90%
03:00 +19°C° 0 mm 1 mps 673 mmHg 92%
04:00 +19°C° 0 mm 1 mps 673 mmHg 93%
05:00 +19°C° 0 mm 1 mps 674 mmHg 94%
06:00 +19°C° 0 mm 1 mps 674 mmHg 95%
07:00 +20°C° 0 mm 1 mps 675 mmHg 87%
08:00 +21°C° 0 mm 2 mps 675 mmHg 80%
09:00 +24°C° 0 mm 2 mps 676 mmHg 72%
10:00 +25°C° 0.1 mm 2 mps 676 mmHg 66%
11:00 +27°C° 0.1 mm 3 mps 676 mmHg 59%
12:00 +28°C° 0.1 mm 3 mps 676 mmHg 53%
13:00 +28°C° 0.1 mm 3 mps 675 mmHg 52%
14:00 +28°C° 0.1 mm 3 mps 674 mmHg 51%
15:00 +28°C° 0.1 mm 3 mps 674 mmHg 50%
16:00 +27°C° 0 mm 2 mps 674 mmHg 55%
17:00 +25°C° 0 mm 2 mps 674 mmHg 60%
18:00 +24°C° 0 mm 1 mps 674 mmHg 65%
19:00 +24°C° 0 mm 2 mps 674 mmHg 68%
20:00 +23°C° 0 mm 2 mps 674 mmHg 71%
21:00 +21°C° 0 mm 2 mps 674 mmHg 73%
22:00 +21°C° 0 mm 2 mps 674 mmHg 78%
23:00 +20°C° 0 mm 2 mps 674 mmHg 83%
Show more